Regional Weather Roundup
Issued by NWS Cleveland, OH

Home | Current Version | Previous Version | Graphics & Text | Print | Product List | Glossary On
Versions: 1 2 3 4 5 6 7 8 9 10 11 12 13 14 15 16 17 18 19 20 21 22 23 24 25 26 27 28 29 30 31 32 33 34 35 36 37 38 39 40 41 42 43 44 45 46 47 48 49 50
000
ASUS41 KCLE 281510
RWRCLE
OHIO REGIONAL WEATHER ROUNDUP
NATIONAL WEATHER SERVICE CLEVELAND, OH
1000 AM EST FRI NOV 28 2014

NOTE: "FAIR" INDICATES FEW OR NO CLOUDS BELOW 12,000 FEET WITH NO
SIGNIFICANT WEATHER AND/OR OBSTRUCTIONS TO VISIBILITY.

OHZ001>008-015>018-024>027-034-035-043-044-281600-
   NORTHWEST OHIO

CITY           SKY/WX    TMP DP  RH WIND       PRES   REMARKS
DEFIANCE       CLOUDY    24  15  68 S7        30.34F WCI  16
FINDLAY        PTSUNNY   25  18  74 S8        30.33F WCI  16
TOLEDO EXPRESS CLOUDY    22  12  65 VRB5      30.34S WCI  16
TOLEDO EXEC    PTSUNNY   22  12  65 S6        30.36S WCI  14
LIMA           CLOUDY    25  14  63 S5        30.33F WCI  19
$$

OHZ009>014-019>023-028>033-038-089-281600-
   NORTHEAST OHIO

CITY           SKY/WX    TMP DP  RH WIND       PRES   REMARKS
CLE-HOPKINS    FLURRIES  21  13  71 SW10      30.38R WCI  10
CLE-LAKEFRONT  CLOUDY    24  16  71 SW10G23   30.35R WCI  14
CUY CO. ARPT   FLURRIES  27  16  63 W15       30.34R WCI  15
LORAIN-ELYRIA  CLOUDY    21  12  68 NW6       30.36S WCI  13
ASHTABULA      CLOUDY    24  15  68 NW9       30.32R WCI  14
AKRON-CANTON   FLURRIES  23  13  65 NW9       30.33S WCI  13
WOOSTER        CLOUDY    21  14  74 W8        30.35S WCI  11
MANSFIELD      CLOUDY    21  16  81 S3        30.32F
YOUNGSTOWN     LGT SNOW  22  16  78 W8        30.31R VSB 3/4 WCI  12
$$

OHZ042-051>053-060>062-070>072-077>081-281600-
  SOUTHWEST OHIO

CITY           SKY/WX    TMP DP  RH WIND       PRES   REMARKS
CINC-COVINGTON PTSUNNY   28  17  63 S7        30.37S WCI  21
CINC-LUNKEN    CLOUDY    30  19  63 S7        30.41S WCI  23
HAMILTON       CLOUDY    30  19  63 VRB3      30.39F
DAYTON         CLOUDY    26  15  63 S7        30.35F WCI  18
WRIGHT-PAT AFB CLOUDY    26  16  67 SE6       30.36F WCI  19
DAYTON GENERAL CLOUDY    26  17  68 SE6       30.35F WCI  19
WILMINGTON     CLOUDY    25  15  66 VRB5      30.36F WCI  19
$$

OHZ036-037-039>041-045>050-054>059-063>069-073>076-082>088-281600-
  CENTRAL AND SOUTHEAST OHIO

CITY           SKY/WX    TMP DP  RH WIND       PRES   REMARKS
COLUMBUS       PTSUNNY   26  17  68 W8        30.38S WCI  18
OSU AIRPORT    PTSUNNY   26  18  71 W6        30.37S WCI  19
BOLTON FIELD   CLOUDY    27  19  74 SW3       30.38S
RICKENBACK AFB CLOUDY    26  20  79 W6        30.39R WCI  19
NEWARK         MOSUNNY   27  18  69 W6        30.37S WCI  20
MARION         LGT SNOW  24  19  81 SW6       30.35F WCI  17
LANCASTER      CLOUDY    27  20  75 W6        30.39S WCI  20
ZANESVILLE     MOSUNNY   25  17  72 W6        30.37S WCI  18
NEW PHILLY     CLOUDY    24  13  62 VRB5      30.38R WCI  18
$$


USA.gov is the U.S. government's official web portal to all federal, state and local government web resources and services.